Location: Il Ritiro
(43.4167°N, 13.1333°E)
Time: 17:12:51
(UTC+00:00)

Cosmos 1703 - Pass Details

Date: 05 July 2020
Orbit: 525 x 539 km, 82.5° (Epoch: 10 August)

Event Time Altitude Azimuth Distance (km) Brightness Sun altitude
Exits shadow 20:16:00 - 190° (S) 1,973 5.8 -12.5°
Reaches altitude 10° 20:16:31 10° 191° (S) 1,761 5.5 -12.6°
Maximum altitude 20:20:23 80° 279° (W) 539 3.3 -13.0°
Drops below altitude 10° 20:24:17 10° 6° (N) 1,776 6.6 -13.5°
Sets 20:26:26 0° 8° (N) 2,671 7.5 -13.7°
